KE7PBG Weather Reports


time (UTC)temp
F
wind
direction
speed
knots
gust
knots
rain 1hr
in
rain 24hr
in
rain mn
in
humidity
%
barometer
mb
20260507030017 54 262 0.0 0.0 0.00 0.00 0.00 83 1014.6
20260507024520 55 279 3.5 7.8 0.00 0.00 0.00 83 1014.4
20260507023057 55 270 2.6 7.0 0.00 0.00 0.00 82 1014.5
20260507021504 55 257 3.5 9.6 0.00 0.00 0.00 82 1014.4
20260507020003 55 284 3.5 9.6 0.00 0.00 0.00 81 1014.5
20260507014509 56 284 2.6 7.0 0.00 0.00 0.00 81 1014.6
20260507013008 56 307 3.5 9.6 0.00 0.00 0.00 82 1014.6
20260507011526 56 280 4.3 8.7 0.00 0.00 0.00 80 1014.6
20260507010013 57 271 1.7 7.0 0.00 0.00 0.00 80 1014.6
20260507004512 57 277 4.3 8.7 0.00 0.00 0.00 80 1014.5
20260507003016 57 263 2.6 7.8 0.00 0.00 0.00 79 1014.6
20260507001602 57 271 3.5 9.6 0.00 0.00 0.00 80 1014.5
20260507000002 57 244 4.3 9.6 0.00 0.00 0.00 79 1014.7
20260506234504 57 262 5.2 8.7 0.00 0.00 0.00 79 1014.8
20260506233002 57 252 5.2 8.7 0.00 0.00 0.00 79 1014.6
20260506231506 57 289 3.5 7.8 0.00 0.00 0.00 80 1014.6
20260506230008 57 304 2.6 7.8 0.00 0.00 0.00 81 1014.7
20260506224506 58 281 2.6 7.0 0.00 0.00 0.00 80 1014.7
20260506223017 58 247 2.6 9.6 0.00 0.00 0.00 80 1014.8
20260506221512 58 267 3.5 7.0 0.00 0.00 0.00 80 1014.9
20260506220054 57 287 3.5 8.7 0.00 0.00 0.00 79 1015.0
20260506214559 58 248 3.5 10.4 0.00 0.00 0.00 79 1014.9
20260506213101 58 294 4.3 10.4 0.00 0.00 0.00 80 1014.9
20260506211503 58 302 3.5 7.0 0.00 0.00 0.00 81 1014.8
20260506204507 57 279 4.3 8.7 0.00 0.00 0.00 79 1014.9
20260506203007 57 275 4.3 10.4 0.00 0.00 0.00 78 1014.7
20260506201509 58 317 3.5 10.4 0.00 0.00 0.00 78 1014.6
20260506200011 58 246 2.6 8.7 0.00 0.00 0.00 77 1014.5
20260506194555 58 211 2.6 8.7 0.00 0.00 0.00 78 1014.5
20260506193056 57 301 3.5 7.8 0.00 0.00 0.00 78 1014.5
20260506191558 57 268 1.7 7.0 0.00 0.00 0.00 80 1014.5
20260506184501 56 285 2.6 7.8 0.00 0.00 0.00 80 1014.5
20260506183000 56 316 4.3 8.7 0.00 0.00 0.00 80 1014.4
20260506181502 56 252 2.6 7.0 0.00 0.00 0.00 80 1014.3
20260506180012 56 232 3.5 7.0 0.00 0.00 0.00 80 1014.1
20260506174506 56 290 3.5 7.8 0.00 0.00 0.00 80 1014.2
20260506173122 55 271 1.7 5.2 0.00 0.00 0.00 82 1014.1
20260506171601 55 253 1.7 7.0 0.00 0.00 0.00 82 1014.1
20260506170051 55 280 4.3 8.7 0.00 0.00 0.00 82 1014.3
20260506164601 54 281 3.5 8.7 0.00 0.00 0.00 82 1014.2
20260506163105 54 294 2.6 7.8 0.00 0.00 0.00 83 1014.2
20260506161641 54 290 1.7 7.0 0.00 0.00 0.00 85 1013.7
20260506160111 54 276 1.7 4.3 0.00 0.00 0.00 86 1013.6
20260506154502 54 284 1.7 4.3 0.00 0.00 0.00 87 1013.5
20260506153051 53 269 0.9 3.5 0.00 0.00 0.00 88 1013.5
20260506151549 53 254 0.0 3.5 0.00 0.00 0.00 88 1013.6
20260506150048 53 286 1.7 5.2 0.00 0.00 0.00 89 1013.6
20260506144554 52 215 0.9 4.3 0.00 0.00 0.00 89 1013.5
20260506143053 52 225 0.9 2.6 0.00 0.00 0.00 89 1013.4
20260506141555 52 215 0.0 0.0 0.00 0.00 0.00 89 1013.1
20260506140059 52 234 0.0 0.0 0.00 0.00 0.00 89 1013.2
20260506134557 52 244 0.0 2.6 0.00 0.00 0.00 89 1013.2
20260506133041 51 290 0.0 4.3 0.00 0.00 0.00 89 1013.1
20260506131530 51 254 0.0 0.0 0.00 0.00 0.00 89 1013.0
20260506130029 52 254 0.9 2.6 0.00 0.00 0.00 89 1013.1
20260506124532 52 240 1.7 6.1 0.00 0.00 0.00 89 1012.9
20260506123037 52 282 1.7 4.3 0.00 0.00 0.00 88 1012.8
20260506121536 52 290 1.7 4.3 0.00 0.00 0.00 88 1012.8
20260506120023 52 239 1.7 3.5 0.00 0.00 0.00 88 1012.7
20260506114530 52 254 1.7 5.2 0.00 0.00 0.00 88 1012.5
20260506113027 52 248 1.7 3.5 0.00 0.00 0.00 88 1012.3
20260506111534 52 248 0.9 3.5 0.00 0.00 0.00 88 1012.4
20260506110040 52 242 1.7 4.3 0.00 0.00 0.00 88 1012.3
20260506104546 53 275 1.7 3.5 0.00 0.00 0.00 88 1012.3
20260506103029 53 244 1.7 3.5 0.00 0.00 0.00 88 1012.2
20260506101540 53 256 1.7 3.5 0.00 0.00 0.00 88 1012.0
20260506100037 53 249 1.7 4.3 0.00 0.00 0.00 88 1012.0
20260506094533 53 252 1.7 6.1 0.00 0.00 0.00 88 1011.9
20260506093021 53 279 2.6 6.1 0.00 0.00 0.00 87 1011.8
20260506091521 53 273 2.6 7.0 0.00 0.00 0.00 87 1011.7
20260506090026 53 277 4.3 7.8 0.00 0.00 0.00 87 1011.8
20260506084531 53 231 2.6 7.0 0.00 0.00 0.00 87 1011.7
20260506083033 53 259 1.7 6.1 0.00 0.00 0.00 86 1011.3
20260506081514 53 240 2.6 7.8 0.00 0.00 0.00 86 1011.3
20260506073034 54 277 3.5 7.0 0.00 0.00 0.00 86 1010.8
20260506071526 54 295 2.6 7.0 0.00 0.00 0.00 86 1010.9
20260506061519 54 261 2.6 7.0 0.00 0.00 0.00 86 1010.5
20260506050103 54 253 1.7 4.3 0.00 0.00 0.00 86 1010.2
20260506044704 54 254 1.7 6.1 0.00 0.00 0.00 86 1010.2
20260506043110 55 268 1.7 3.5 0.00 0.00 0.00 85 1010.1
20260506041603 55 258 2.6 6.1 0.00 0.00 0.00 85 1009.8
20260506040054 56 237 1.7 3.5 0.00 0.00 0.00 84 1009.7
20260506034626 57 248 1.7 4.3 0.00 0.00 0.00 83 1009.5
20260506033058 57 360 0.9 3.5 0.00 0.00 0.00 82 1009.3
20260506031510 58 264 1.7 5.2 0.00 0.00 0.00 81 1009.1